Wetterdaten: Woche 19.03.07 - 25.03.07 (KW12)
Datum Zeit Temperatur Luftfeuchte Luftdruck Niederschlag Windrichtung Wind
19.03.2007 00:00 0,9 C 93 % 1002 hPa 0,0 l/m - - 0,0 km/h (0 Bft)
19.03.2007 01:00 0,8 C 97 % 1002 hPa 0,0 l/m - - 0,0 km/h (0 Bft)
19.03.2007 02:00 0,6 C 98 % 1001 hPa 0,0 l/m - - 0,0 km/h (0 Bft)
19.03.2007 03:00 0,6 C 98 % 1001 hPa 0,0 l/m - - 0,0 km/h (0 Bft)
19.03.2007 04:00 0,7 C 98 % 1000 hPa 0,0 l/m - - 0,0 km/h (0 Bft)
19.03.2007 05:00 0,7 C 98 % 999 hPa 0,0 l/m - - 0,0 km/h (0 Bft)
19.03.2007 06:00 0,5 C 98 % 998 hPa 0,0 l/m - - 0,0 km/h (0 Bft)
19.03.2007 07:00 0,5 C 98 % 997 hPa 0,0 l/m - - 0,0 km/h (0 Bft)
19.03.2007 08:00 0,9 C 98 % 996 hPa 0,0 l/m - - 0,0 km/h (0 Bft)
19.03.2007 09:00 1,5 C 96 % 996 hPa 0,0 l/m - - 0,0 km/h (0 Bft)
19.03.2007 10:00 1,6 C 97 % 995 hPa 2,0 l/m - - 0,0 km/h (0 Bft)
19.03.2007 11:00 2,4 C 92 % 995 hPa 3,0 l/m - - 0,0 km/h (0 Bft)
19.03.2007 12:00 3,5 C 81 % 994 hPa 0,0 l/m - - 0,0 km/h (0 Bft)
19.03.2007 13:00 3,9 C 70 % 993 hPa 0,0 l/m - - 0,0 km/h (0 Bft)
19.03.2007 14:00 2,2 C 80 % 993 hPa 0,0 l/m - - 0,0 km/h (0 Bft)
19.03.2007 15:00 1,5 C 88 % 993 hPa 0,0 l/m - - 0,0 km/h (0 Bft)
19.03.2007 16:00 2,0 C 91 % 993 hPa 2,0 l/m - - 0,0 km/h (0 Bft)
19.03.2007 17:00 2,1 C 93 % 993 hPa 0,0 l/m - - 0,0 km/h (0 Bft)
19.03.2007 18:00 1,9 C 93 % 993 hPa 0,0 l/m - - 0,0 km/h (0 Bft)
19.03.2007 19:00 1,3 C 94 % 994 hPa 1,0 l/m - - 0,0 km/h (0 Bft)
19.03.2007 20:00 0,5 C 94 % 995 hPa 0,0 l/m - - 0,0 km/h (0 Bft)
19.03.2007 21:00 0,2 C 97 % 995 hPa 0,0 l/m - - 0,0 km/h (0 Bft)
19.03.2007 22:00 -0,2 C 98 % 995 hPa 0,0 l/m - - 0,0 km/h (0 Bft)
19.03.2007 23:00 -0,3 C 98 % 995 hPa 0,0 l/m - - 0,0 km/h (0 Bft)
20.03.2007 00:00 -0,3 C 98 % 995 hPa 0,0 l/m - - 0,0 km/h (0 Bft)
20.03.2007 01:00 -0,4 C 98 % 995 hPa 0,0 l/m - - 0,0 km/h (0 Bft)
20.03.2007 02:00 -0,3 C 98 % 995 hPa 0,0 l/m - - 0,0 km/h (0 Bft)
20.03.2007 03:00 -0,2 C 98 % 995 hPa 0,0 l/m - - 0,0 km/h (0 Bft)
20.03.2007 04:00 -0,1 C 98 % 995 hPa 0,0 l/m - - 0,0 km/h (0 Bft)
20.03.2007 05:00 -0,1 C 98 % 995 hPa 0,0 l/m - - 0,0 km/h (0 Bft)
20.03.2007 06:00 -0,3 C 95 % 996 hPa 0,0 l/m - - 0,0 km/h (0 Bft)
20.03.2007 07:00 -0,5 C 95 % 996 hPa 0,0 l/m - - 0,0 km/h (0 Bft)
20.03.2007 08:00 -0,1 C 94 % 997 hPa 0,0 l/m - - 0,0 km/h (0 Bft)
20.03.2007 09:00 0,5 C 89 % 997 hPa 0,0 l/m - - 0,0 km/h (0 Bft)
20.03.2007 10:00 1,0 C 78 % 997 hPa 0,0 l/m - - 0,0 km/h (0 Bft)
20.03.2007 11:00 1,2 C 73 % 998 hPa 0,0 l/m - - 0,0 km/h (0 Bft)
20.03.2007 12:00 1,8 C 70 % 998 hPa 0,0 l/m - - 0,0 km/h (0 Bft)
20.03.2007 13:00 2,2 C 64 % 998 hPa 0,0 l/m - - 0,0 km/h (0 Bft)
20.03.2007 14:00 2,3 C 61 % 998 hPa 2,0 l/m - - 0,0 km/h (0 Bft)
20.03.2007 15:00 2,6 C 57 % 999 hPa 1,0 l/m - - 0,0 km/h (0 Bft)
20.03.2007 16:00 2,9 C 55 % 999 hPa 1,0 l/m - - 0,0 km/h (0 Bft)
20.03.2007 17:00 2,6 C 56 % 1000 hPa 0,0 l/m - - 0,0 km/h (0 Bft)
20.03.2007 18:00 2,0 C 60 % 1000 hPa 0,0 l/m - - 0,0 km/h (0 Bft)
20.03.2007 19:00 1,4 C 65 % 1001 hPa 0,0 l/m - - 0,0 km/h (0 Bft)
20.03.2007 20:00 0,9 C 70 % 1001 hPa 0,0 l/m - - 0,0 km/h (0 Bft)
20.03.2007 21:00 0,6 C 73 % 1002 hPa 0,0 l/m - - 0,0 km/h (0 Bft)
20.03.2007 22:00 0,2 C 75 % 1002 hPa 0,0 l/m - - 0,0 km/h (0 Bft)
20.03.2007 23:00 0,1 C 82 % 1002 hPa 0,0 l/m - - 0,0 km/h (0 Bft)
21.03.2007 00:00 -0,1 C 87 % 1002 hPa 0,0 l/m - - 0,0 km/h (0 Bft)
21.03.2007 01:00 -0,0 C 87 % 1002 hPa 0,0 l/m - - 0,0 km/h (0 Bft)
21.03.2007 02:00 -0,3 C 85 % 1002 hPa 0,0 l/m - - 0,0 km/h (0 Bft)
21.03.2007 03:00 -0,3 C 86 % 1002 hPa 0,0 l/m - - 0,0 km/h (0 Bft)
21.03.2007 04:00 -0,2 C 87 % 1002 hPa 0,0 l/m - - 0,0 km/h (0 Bft)
21.03.2007 05:00 -0,1 C 88 % 1003 hPa 0,0 l/m - - 0,0 km/h (0 Bft)
21.03.2007 06:00 0,0 C 90 % 1004 hPa 0,0 l/m - - 0,0 km/h (0 Bft)
21.03.2007 07:00 0,1 C 92 % 1004 hPa 0,0 l/m - - 0,0 km/h (0 Bft)
21.03.2007 08:00 0,6 C 83 % 1005 hPa 0,0 l/m - - 0,0 km/h (0 Bft)
21.03.2007 09:00 1,9 C 60 % 1005 hPa 1,0 l/m - - 0,0 km/h (0 Bft)
21.03.2007 10:00 2,4 C 54 % 1006 hPa 1,0 l/m - - 0,0 km/h (0 Bft)
21.03.2007 11:00 2,8 C 49 % 1006 hPa 0,0 l/m - - 0,0 km/h (0 Bft)
21.03.2007 12:00 3,2 C 48 % 1006 hPa 0,0 l/m - - 0,0 km/h (0 Bft)
21.03.2007 13:00 3,9 C 47 % 1006 hPa 0,0 l/m - - 0,0 km/h (0 Bft)
21.03.2007 14:00 3,9 C 52 % 1006 hPa 0,0 l/m - - 0,0 km/h (0 Bft)
21.03.2007 15:00 2,7 C 62 % 1007 hPa 0,0 l/m - - 0,0 km/h (0 Bft)
21.03.2007 16:00 1,0 C 79 % 1007 hPa 0,0 l/m - - 0,0 km/h (0 Bft)
21.03.2007 17:00 0,7 C 87 % 1008 hPa 0,0 l/m - - 0,0 km/h (0 Bft)
21.03.2007 18:00 0,3 C 89 % 1008 hPa 0,0 l/m - - 0,0 km/h (0 Bft)
21.03.2007 19:00 -0,4 C 89 % 1009 hPa 0,0 l/m - - 0,0 km/h (0 Bft)
21.03.2007 20:00 -1,3 C 90 % 1010 hPa 0,0 l/m - - 0,0 km/h (0 Bft)
21.03.2007 21:00 -1,5 C 92 % 1010 hPa 0,0 l/m - - 0,0 km/h (0 Bft)
21.03.2007 22:00 -1,7 C 94 % 1010 hPa 0,0 l/m - - 0,0 km/h (0 Bft)
21.03.2007 23:00 -2,3 C 95 % 1010 hPa 0,0 l/m - - 0,0 km/h (0 Bft)
22.03.2007 00:00 -2,4 C 95 % 1010 hPa 0,0 l/m - - 0,0 km/h (0 Bft)
22.03.2007 01:00 -2,7 C 95 % 1010 hPa 0,0 l/m - - 0,0 km/h (0 Bft)
22.03.2007 02:00 -3,0 C 95 % 1010 hPa 0,0 l/m - - 0,0 km/h (0 Bft)
22.03.2007 03:00 -2,7 C 97 % 1010 hPa 0,0 l/m - - 0,0 km/h (0 Bft)
22.03.2007 04:00 -2,2 C 98 % 1010 hPa 0,0 l/m - - 0,0 km/h (0 Bft)
22.03.2007 05:00 -1,9 C 98 % 1010 hPa 0,0 l/m - - 0,0 km/h (0 Bft)
22.03.2007 06:00 -1,6 C 98 % 1010 hPa 0,0 l/m - - 0,0 km/h (0 Bft)
22.03.2007 07:00 -1,4 C 97 % 1010 hPa 0,0 l/m - - 0,0 km/h (0 Bft)
22.03.2007 08:00 -1,1 C 96 % 1010 hPa 0,0 l/m - - 0,0 km/h (0 Bft)
22.03.2007 09:00 -0,5 C 92 % 1010 hPa 0,0 l/m - - 0,0 km/h (0 Bft)
22.03.2007 10:00 0,0 C 89 % 1010 hPa 0,0 l/m - - 0,0 km/h (0 Bft)
22.03.2007 11:00 0,7 C 88 % 1010 hPa 0,0 l/m - - 0,0 km/h (0 Bft)
22.03.2007 12:00 1,4 C 78 % 1010 hPa 1,0 l/m - - 0,0 km/h (0 Bft)
22.03.2007 13:00 1,7 C 74 % 1010 hPa 0,0 l/m - - 0,0 km/h (0 Bft)
22.03.2007 14:00 1,9 C 75 % 1010 hPa 0,0 l/m - - 0,0 km/h (0 Bft)
22.03.2007 15:00 2,1 C 72 % 1010 hPa 1,0 l/m - - 0,0 km/h (0 Bft)
22.03.2007 16:00 1,8 C 75 % 1010 hPa 0,0 l/m - - 0,0 km/h (0 Bft)
22.03.2007 17:00 1,6 C 76 % 1010 hPa 0,0 l/m - - 0,0 km/h (0 Bft)
22.03.2007 18:00 1,4 C 75 % 1010 hPa 0,0 l/m - - 0,0 km/h (0 Bft)
22.03.2007 19:00 1,2 C 78 % 1010 hPa 0,0 l/m - - 0,0 km/h (0 Bft)
22.03.2007 20:00 0,7 C 89 % 1009 hPa 0,0 l/m - - 0,0 km/h (0 Bft)
22.03.2007 21:00 0,4 C 95 % 1009 hPa 0,0 l/m - - 0,0 km/h (0 Bft)
22.03.2007 22:00 0,3 C 97 % 1008 hPa 0,0 l/m - - 0,0 km/h (0 Bft)
22.03.2007 23:00 0,2 C 98 % 1008 hPa 0,0 l/m - - 0,0 km/h (0 Bft)
23.03.2007 00:00 0,1 C 98 % 1007 hPa 0,0 l/m - - 0,0 km/h (0 Bft)
23.03.2007 01:00 0,1 C 98 % 1007 hPa 0,0 l/m - - 0,0 km/h (0 Bft)
23.03.2007 02:00 0,0 C 98 % 1006 hPa 0,0 l/m - - 0,0 km/h (0 Bft)
23.03.2007 03:00 0,0 C 98 % 1005 hPa 0,0 l/m - - 0,0 km/h (0 Bft)
23.03.2007 04:00 -0,1 C 98 % 1005 hPa 0,0 l/m - - 0,0 km/h (0 Bft)
23.03.2007 05:00 -0,1 C 98 % 1005 hPa 0,0 l/m - - 0,0 km/h (0 Bft)
23.03.2007 06:00 -0,1 C 98 % 1005 hPa 0,0 l/m - - 0,0 km/h (0 Bft)
23.03.2007 07:00 -0,2 C 98 % 1005 hPa 0,0 l/m - - 0,0 km/h (0 Bft)
23.03.2007 08:00 -0,0 C 98 % 1006 hPa 0,0 l/m - - 0,0 km/h (0 Bft)
23.03.2007 09:00 0,2 C 98 % 1006 hPa 0,0 l/m - - 0,0 km/h (0 Bft)
23.03.2007 10:00 0,8 C 98 % 1006 hPa 0,0 l/m - - 0,0 km/h (0 Bft)
23.03.2007 11:00 1,3 C 91 % 1007 hPa 0,0 l/m - - 0,0 km/h (0 Bft)
23.03.2007 12:00 1,6 C 84 % 1007 hPa 1,0 l/m - - 0,0 km/h (0 Bft)
23.03.2007 13:00 1,8 C 86 % 1008 hPa 3,0 l/m - - 0,0 km/h (0 Bft)
23.03.2007 14:00 2,0 C 82 % 1008 hPa 1,0 l/m - - 0,0 km/h (0 Bft)
23.03.2007 15:00 1,9 C 74 % 1008 hPa 0,0 l/m - - 0,0 km/h (0 Bft)
23.03.2007 16:00 1,9 C 71 % 1008 hPa 0,0 l/m - - 0,0 km/h (0 Bft)
23.03.2007 17:00 1,5 C 70 % 1009 hPa 0,0 l/m - - 0,0 km/h (0 Bft)
23.03.2007 18:00 1,0 C 71 % 1009 hPa 0,0 l/m - - 0,0 km/h (0 Bft)
23.03.2007 19:00 0,7 C 76 % 1010 hPa 0,0 l/m - - 0,0 km/h (0 Bft)
23.03.2007 20:00 0,2 C 78 % 1010 hPa 0,0 l/m - - 0,0 km/h (0 Bft)
23.03.2007 21:00 -0,2 C 80 % 1010 hPa 0,0 l/m - - 0,0 km/h (0 Bft)
23.03.2007 22:00 -0,9 C 85 % 1010 hPa 0,0 l/m - - 0,0 km/h (0 Bft)
23.03.2007 23:00 -1,6 C 88 % 1010 hPa 0,0 l/m - - 0,0 km/h (0 Bft)
24.03.2007 00:00 -1,9 C 90 % 1010 hPa 0,0 l/m - - 0,0 km/h (0 Bft)
24.03.2007 01:00 -1,8 C 93 % 1009 hPa 0,0 l/m - - 0,0 km/h (0 Bft)
24.03.2007 02:00 -1,7 C 95 % 1009 hPa 0,0 l/m - - 0,0 km/h (0 Bft)
24.03.2007 03:00 -1,5 C 96 % 1008 hPa 0,0 l/m - - 0,0 km/h (0 Bft)
24.03.2007 04:00 -1,3 C 97 % 1008 hPa 0,0 l/m - - 0,0 km/h (0 Bft)
24.03.2007 05:00 -1,0 C 98 % 1008 hPa 0,0 l/m - - 0,0 km/h (0 Bft)
24.03.2007 06:00 -0,8 C 98 % 1007 hPa 0,0 l/m - - 0,0 km/h (0 Bft)
24.03.2007 07:00 -0,5 C 98 % 1007 hPa 0,0 l/m - - 0,0 km/h (0 Bft)
24.03.2007 08:00 0,0 C 98 % 1007 hPa 0,0 l/m - - 0,0 km/h (0 Bft)
24.03.2007 09:00 0,6 C 98 % 1008 hPa 0,0 l/m - - 0,0 km/h (0 Bft)
24.03.2007 10:00 0,9 C 97 % 1008 hPa 0,0 l/m - - 0,0 km/h (0 Bft)
24.03.2007 11:00 1,6 C 95 % 1008 hPa 3,0 l/m - - 0,0 km/h (0 Bft)
24.03.2007 12:00 2,2 C 89 % 1008 hPa 0,0 l/m - - 0,0 km/h (0 Bft)
24.03.2007 13:00 2,8 C 82 % 1008 hPa 0,0 l/m - - 0,0 km/h (0 Bft)
24.03.2007 14:00 3,3 C 72 % 1008 hPa 0,0 l/m - - 0,0 km/h (0 Bft)
24.03.2007 15:00 3,9 C 67 % 1009 hPa 0,0 l/m - - 0,0 km/h (0 Bft)
24.03.2007 16:00 3,8 C 66 % 1009 hPa 0,0 l/m - - 0,0 km/h (0 Bft)
24.03.2007 17:00 3,5 C 66 % 1009 hPa 0,0 l/m - - 0,0 km/h (0 Bft)
24.03.2007 18:00 3,1 C 70 % 1010 hPa 0,0 l/m - - 0,0 km/h (0 Bft)
24.03.2007 19:00 2,4 C 76 % 1010 hPa 0,0 l/m - - 0,0 km/h (0 Bft)
24.03.2007 20:00 2,1 C 80 % 1011 hPa 0,0 l/m - - 0,0 km/h (0 Bft)
24.03.2007 21:00 1,8 C 85 % 1011 hPa 0,0 l/m - - 0,0 km/h (0 Bft)
24.03.2007 22:00 1,8 C 89 % 1011 hPa 0,0 l/m - - 0,0 km/h (0 Bft)
24.03.2007 23:00 1,5 C 92 % 1011 hPa 0,0 l/m - - 0,0 km/h (0 Bft)
25.03.2007 00:00 1,4 C 94 % 1011 hPa 0,0 l/m - - 0,0 km/h (0 Bft)
25.03.2007 01:00 1,5 C 94 % 1012 hPa 0,0 l/m - - 0,0 km/h (0 Bft)
25.03.2007 03:00 1,5 C 93 % 1012 hPa 1,0 l/m - - 0,0 km/h (0 Bft)
25.03.2007 04:00 1,6 C 89 % 1012 hPa 0,0 l/m - - 0,0 km/h (0 Bft)
25.03.2007 05:00 1,7 C 87 % 1012 hPa 0,0 l/m - - 0,0 km/h (0 Bft)
25.03.2007 06:00 1,7 C 83 % 1013 hPa 0,0 l/m - - 0,0 km/h (0 Bft)
25.03.2007 07:00 1,7 C 81 % 1013 hPa 0,0 l/m - - 0,0 km/h (0 Bft)
25.03.2007 08:00 1,8 C 80 % 1014 hPa 0,0 l/m - - 0,0 km/h (0 Bft)
25.03.2007 09:00 2,0 C 78 % 1014 hPa 0,0 l/m - - 0,0 km/h (0 Bft)
25.03.2007 10:00 2,3 C 76 % 1015 hPa 0,0 l/m - - 0,0 km/h (0 Bft)
25.03.2007 11:00 2,7 C 74 % 1015 hPa 0,0 l/m - - 0,0 km/h (0 Bft)
25.03.2007 12:00 3,6 C 71 % 1016 hPa 0,0 l/m - - 0,0 km/h (0 Bft)
25.03.2007 13:00 5,3 C 65 % 1016 hPa 0,0 l/m - - 0,0 km/h (0 Bft)
25.03.2007 14:00 7,3 C 57 % 1016 hPa 0,0 l/m - - 0,0 km/h (0 Bft)
25.03.2007 15:00 9,5 C 50 % 1016 hPa 0,0 l/m - - 0,0 km/h (0 Bft)
25.03.2007 16:00 10,6 C 47 % 1015 hPa 0,0 l/m - - 0,0 km/h (0 Bft)
25.03.2007 17:00 11,1 C 46 % 1015 hPa 0,0 l/m - - 0,0 km/h (0 Bft)
25.03.2007 18:00 11,2 C 47 % 1015 hPa 0,0 l/m - - 0,0 km/h (0 Bft)
25.03.2007 19:00 10,0 C 50 % 1015 hPa 0,0 l/m - - 0,0 km/h (0 Bft)
25.03.2007 20:00 8,6 C 55 % 1016 hPa 0,0 l/m - - 0,0 km/h (0 Bft)
25.03.2007 21:00 7,8 C 57 % 1016 hPa 0,0 l/m - - 0,0 km/h (0 Bft)
25.03.2007 22:00 6,6 C 60 % 1017 hPa 0,0 l/m - - 0,0 km/h (0 Bft)
25.03.2007 23:00 5,2 C 65 % 1017 hPa 0,0 l/m - - 0,0 km/h (0 Bft)
Min-Datum _ 22.03.07 21.03.07 19.03.07 - - 19.03.07
_ Min-Zeit 02:03 13:24 13:07 - - 00:00
Minimum _ -3,1 C 45 % 992 hPa - - 0,0 km/h (0 Bft)
Max-Datum _ 25.03.07 19.03.07 25.03.07 19.03.07 - 19.03.07
_ Max-Zeit 17:43 01:36 22:21 11:02 - 00:00
Maximum _ 11,3 C 98 % 1017 hPa 3,0 l/m - 0,0 km/h
- - (0 Bft)
Durchschnitt _ 1,3 C 83 % 1006 hPa #25,0 l/m - - 0,0 km/h (0 Bft)

Durchschnitt Minimum Temp.1,1 C
Durchschnitt Maximum Temp.1,5 C